Time,TemperatureF,DewpointF,PressureIn,WindDirection,WindDirectionDegrees,WindSpeedMPH,WindSpeedGustMPH,Humidity,HourlyPrecipIn,Conditions,Clouds,dailyrainin,SoftwareType,DateUTC
2013-02-26 00:01:00,31.0,26.0,-100.00,ENE,65,0.0,0.0,83,0.00,,,-99.99,,2013-02-26 05:01:00,
2013-02-26 00:12:00,30.0,26.0,-100.00,ENE,75,0.0,0.0,85,0.00,,,-99.99,,2013-02-26 05:12:00,
2013-02-26 00:22:00,30.0,26.0,-100.00,ENE,75,0.0,0.0,84,0.00,,,-99.99,,2013-02-26 05:22:00,
2013-02-26 00:32:00,30.0,26.0,-100.00,NE,45,0.0,0.0,83,0.00,,,-99.99,,2013-02-26 05:32:00,
2013-02-26 00:43:00,30.0,26.0,-100.00,NE,55,0.0,0.0,83,0.00,,,-99.99,,2013-02-26 05:43:00,
2013-02-26 00:52:00,30.0,26.0,-100.00,NE,55,0.0,0.0,84,0.00,,,-99.99,,2013-02-26 05:52:00,
2013-02-26 01:02:00,30.0,26.0,-100.00,ENE,60,0.0,0.0,85,0.00,,,-99.99,,2013-02-26 06:02:00,
2013-02-26 01:11:00,30.0,26.0,-100.00,ENE,75,0.0,0.0,85,0.00,,,-99.99,,2013-02-26 06:11:00,
2013-02-26 01:21:00,30.0,26.0,-100.00,ENE,75,0.0,0.0,85,0.00,,,-99.99,,2013-02-26 06:21:00,
2013-02-26 01:32:00,30.0,26.0,-100.00,ENE,75,0.0,0.0,85,0.00,,,-99.99,,2013-02-26 06:32:00,
2013-02-26 01:42:00,30.0,26.0,-100.00,ENE,75,0.0,0.0,83,0.00,,,-99.99,,2013-02-26 06:42:00,
2013-02-26 01:52:00,30.0,26.0,-100.00,ENE,70,0.0,0.0,82,0.00,,,-99.99,,2013-02-26 06:52:00,
2013-02-26 02:01:00,30.0,26.0,-100.00,East,80,0.0,0.0,82,0.00,,,-99.99,,2013-02-26 07:01:00,
2013-02-26 02:11:00,30.0,26.0,-100.00,East,80,0.0,0.0,83,0.00,,,-99.99,,2013-02-26 07:11:00,
2013-02-26 02:22:00,30.0,26.0,-100.00,ENE,60,0.0,0.0,82,0.00,,,-99.99,,2013-02-26 07:22:00,
2013-02-26 02:32:00,31.0,25.0,-100.00,NE,50,0.0,0.0,81,0.00,,,-99.99,,2013-02-26 07:32:00,
2013-02-26 02:42:00,31.0,25.0,-100.00,NE,50,0.0,0.0,81,0.00,,,-99.99,,2013-02-26 07:42:00,
2013-02-26 02:51:00,31.0,26.0,-100.00,ENE,70,0.0,0.0,81,0.00,,,-99.99,,2013-02-26 07:51:00,
2013-02-26 03:02:00,30.0,25.0,-100.00,NE,55,0.0,0.0,80,0.00,,,-99.99,,2013-02-26 08:02:00,
2013-02-26 03:11:00,30.0,25.0,-100.00,NE,45,0.0,0.0,80,0.00,,,-99.99,,2013-02-26 08:11:00,
2013-02-26 03:21:00,30.0,25.0,-100.00,NE,45,0.0,0.0,81,0.00,,,-99.99,,2013-02-26 08:21:00,
2013-02-26 03:32:00,30.0,25.0,-100.00,NNE,25,0.0,0.0,81,0.00,,,-99.99,,2013-02-26 08:32:00,
2013-02-26 03:42:00,30.0,25.0,-100.00,NE,40,0.0,0.0,80,0.00,,,-99.99,,2013-02-26 08:42:00,
2013-02-26 03:52:00,30.0,25.0,-100.00,NE,40,0.0,0.0,80,0.00,,,-99.99,,2013-02-26 08:52:00,
2013-02-26 04:02:00,30.0,25.0,-100.00,ENE,70,0.0,0.0,81,0.00,,,-99.99,,2013-02-26 09:02:00,
2013-02-26 04:11:00,30.0,25.0,-100.00,East,90,0.0,0.0,80,0.00,,,-99.99,,2013-02-26 09:11:00,
2013-02-26 04:21:00,30.0,25.0,-100.00,ENE,70,0.0,0.0,79,0.00,,,-99.99,,2013-02-26 09:21:00,
2013-02-26 04:32:00,30.0,25.0,-100.00,NE,55,0.0,0.0,80,0.00,,,-99.99,,2013-02-26 09:32:00,
2013-02-26 04:43:00,30.0,25.0,-100.00,ENE,65,0.0,0.0,80,0.00,,,-99.99,,2013-02-26 09:43:00,
2013-02-26 04:51:00,30.0,25.0,-100.00,East,85,0.0,0.0,81,0.00,,,-99.99,,2013-02-26 09:51:00,
2013-02-26 05:01:00,30.0,25.0,-100.00,ENE,65,0.0,0.0,80,0.00,,,-99.99,,2013-02-26 10:01:00,
2013-02-26 05:11:00,30.0,25.0,-100.00,ENE,75,0.0,0.0,80,0.00,,,-99.99,,2013-02-26 10:11:00,
2013-02-26 05:21:00,30.0,25.0,-100.00,ENE,60,0.0,0.0,80,0.00,,,-99.99,,2013-02-26 10:21:00,
2013-02-26 05:32:00,30.0,25.0,-100.00,ENE,65,0.0,0.0,80,0.00,,,-99.99,,2013-02-26 10:32:00,
2013-02-26 05:42:00,30.0,25.0,-100.00,NE,50,0.0,0.0,80,0.00,,,-99.99,,2013-02-26 10:42:00,
2013-02-26 05:52:00,30.0,25.0,-100.00,East,80,0.0,0.0,80,0.00,,,-99.99,,2013-02-26 10:52:00,
2013-02-26 06:01:00,30.0,25.0,-100.00,ENE,65,0.0,0.0,80,0.00,,,-99.99,,2013-02-26 11:01:00,
2013-02-26 06:12:00,31.0,25.0,-100.00,East,80,0.0,0.0,79,0.00,,,-99.99,,2013-02-26 11:12:00,
2013-02-26 06:22:00,31.0,25.0,-100.00,ENE,75,0.0,0.0,77,0.00,,,-99.99,,2013-02-26 11:22:00,
2013-02-26 06:32:00,31.0,25.0,-100.00,ENE,65,0.0,0.0,77,0.00,,,-99.99,,2013-02-26 11:32:00,
2013-02-26 06:42:00,31.0,25.0,-100.00,ENE,75,0.0,0.0,78,0.00,,,-99.99,,2013-02-26 11:42:00,
2013-02-26 06:52:00,31.0,25.0,-100.00,ENE,75,0.0,0.0,77,0.00,,,-99.99,,2013-02-26 11:52:00,
2013-02-26 07:02:00,31.0,25.0,-100.00,ENE,60,0.0,0.0,76,0.00,,,-99.99,,2013-02-26 12:02:00,
2013-02-26 07:11:00,32.0,25.0,-100.00,East,80,0.0,0.0,75,0.00,,,-99.99,,2013-02-26 12:11:00,
2013-02-26 07:22:00,32.0,25.0,-100.00,East,80,0.0,0.0,75,0.00,,,-99.99,,2013-02-26 12:22:00,
2013-02-26 07:32:00,32.0,25.0,-100.00,ENE,70,0.0,0.0,75,0.00,,,-99.99,,2013-02-26 12:32:00,
2013-02-26 07:42:00,32.0,25.0,-100.00,East,80,0.0,0.0,74,0.00,,,-99.99,,2013-02-26 12:42:00,
2013-02-26 07:52:00,33.0,25.0,-100.00,ENE,75,0.0,0.0,73,0.00,,,-99.99,,2013-02-26 12:52:00,
2013-02-26 08:02:00,33.0,25.0,-100.00,East,80,0.0,0.0,73,0.00,,,-99.99,,2013-02-26 13:02:00,
2013-02-26 08:11:00,33.0,26.0,-100.00,East,80,0.0,0.0,74,0.55,,,-99.99,,2013-02-26 13:11:00,
2013-02-26 08:22:00,33.0,26.0,-100.00,NE,50,0.0,0.0,73,0.00,,,-99.99,,2013-02-26 13:22:00,
2013-02-26 08:32:00,33.0,26.0,-100.00,ENE,75,0.0,0.0,75,5.08,,,-99.99,,2013-02-26 13:32:00,
2013-02-26 08:42:00,33.0,27.0,-100.00,NE,45,0.0,0.0,78,0.55,,,-99.99,,2013-02-26 13:42:00,
2013-02-26 08:51:00,33.0,27.0,-100.00,NE,50,0.0,0.0,78,1.10,,,-99.99,,2013-02-26 13:51:00,
2013-02-26 09:01:00,33.0,28.0,-100.00,ENE,70,0.0,0.0,80,1.69,,,-99.99,,2013-02-26 14:01:00,
2013-02-26 09:11:00,33.0,28.0,-100.00,ENE,65,0.0,0.0,82,0.00,,,-99.99,,2013-02-26 14:11:00,
2013-02-26 09:21:00,33.0,28.0,-100.00,ENE,70,0.0,0.0,82,0.00,,,-99.99,,2013-02-26 14:21:00,
2013-02-26 09:32:00,33.0,29.0,-100.00,ENE,75,0.0,0.0,83,1.10,,,-99.99,,2013-02-26 14:32:00,
2013-02-26 09:42:00,33.0,29.0,-100.00,East,80,0.0,0.0,85,1.69,,,-99.99,,2013-02-26 14:42:00,
2013-02-26 09:52:00,33.0,29.0,-100.00,ENE,70,0.0,0.0,87,4.53,,,-99.99,,2013-02-26 14:52:00,
2013-02-26 10:02:00,33.0,29.0,-100.00,East,85,0.0,0.0,88,0.55,,,-99.99,,2013-02-26 15:02:00,
2013-02-26 10:11:00,33.0,29.0,-100.00,East,80,0.0,0.0,87,1.69,,,-99.99,,2013-02-26 15:11:00,
2013-02-26 10:22:00,33.0,29.0,-100.00,NE,40,0.0,0.0,87,3.39,,,-99.99,,2013-02-26 15:22:00,
2013-02-26 10:32:00,33.0,30.0,-100.00,ENE,75,0.0,0.0,88,0.55,,,-99.99,,2013-02-26 15:32:00,
2013-02-26 10:42:00,33.0,30.0,-100.00,ENE,60,0.0,0.0,90,2.83,,,-99.99,,2013-02-26 15:42:00,
2013-02-26 10:52:00,33.0,30.0,-100.00,NNE,30,0.0,0.0,91,2.24,,,-99.99,,2013-02-26 15:52:00,
2013-02-26 11:02:00,33.0,31.0,-100.00,ENE,70,0.0,0.0,92,2.24,,,-99.99,,2013-02-26 16:02:00,
2013-02-26 11:11:00,33.0,31.0,-100.00,ENE,70,0.0,0.0,93,2.24,,,-99.99,,2013-02-26 16:11:00,
2013-02-26 11:22:00,33.0,31.0,-100.00,ENE,70,0.0,0.0,94,1.69,,,-99.99,,2013-02-26 16:22:00,
2013-02-26 11:32:00,33.0,32.0,-100.00,NE,55,0.0,0.0,94,0.55,,,-99.99,,2013-02-26 16:32:00,
2013-02-26 11:42:00,33.0,32.0,-100.00,NE,55,0.0,0.0,95,6.77,,,-99.99,,2013-02-26 16:42:00,
2013-02-26 11:52:00,33.0,32.0,-100.00,ENE,70,0.0,0.0,96,2.24,,,-99.99,,2013-02-26 16:52:00,
2013-02-26 12:01:00,34.0,33.0,-100.00,ENE,75,0.0,0.0,96,1.69,,,-99.99,,2013-02-26 17:01:00,
2013-02-26 12:11:00,34.0,34.0,-100.00,East,80,0.0,0.0,97,2.83,,,-99.99,,2013-02-26 17:11:00,
2013-02-26 12:21:00,35.0,34.0,-100.00,East,80,0.0,0.0,97,0.00,,,-99.99,,2013-02-26 17:21:00,
2013-02-26 12:32:00,35.0,34.0,-100.00,ENE,75,0.0,0.0,97,0.55,,,-99.99,,2013-02-26 17:32:00,
2013-02-26 12:42:00,35.0,34.0,-100.00,East,80,0.0,0.0,97,0.55,,,-99.99,,2013-02-26 17:42:00,
2013-02-26 12:52:00,35.0,35.0,-100.00,East,85,0.0,0.0,97,0.00,,,-99.99,,2013-02-26 17:52:00,
2013-02-26 13:02:00,35.0,35.0,-100.00,East,85,0.0,0.0,96,0.00,,,-99.99,,2013-02-26 18:02:00,
2013-02-26 13:12:00,35.0,34.0,-100.00,East,85,0.0,0.0,96,0.00,,,-99.99,,2013-02-26 18:12:00,
2013-02-26 13:21:00,35.0,35.0,-100.00,East,85,0.0,0.0,96,0.00,,,-99.99,,2013-02-26 18:21:00,
2013-02-26 13:32:00,36.0,35.0,-100.00,East,95,0.0,0.0,96,0.00,,,-99.99,,2013-02-26 18:32:00,
2013-02-26 13:42:00,36.0,35.0,-100.00,East,90,0.0,0.0,95,0.55,,,-99.99,,2013-02-26 18:42:00,
2013-02-26 13:52:00,36.0,35.0,-100.00,East,90,0.0,0.0,96,3.94,,,-99.99,,2013-02-26 18:52:00,
2013-02-26 14:01:00,37.0,35.0,-100.00,East,90,0.0,0.0,96,0.00,,,-99.99,,2013-02-26 19:01:00,
2013-02-26 14:11:00,37.0,36.0,-100.00,East,85,0.0,0.0,96,1.10,,,-99.99,,2013-02-26 19:11:00,
2013-02-26 14:22:00,37.0,36.0,-100.00,East,80,0.0,0.0,96,0.00,,,-99.99,,2013-02-26 19:22:00,
2013-02-26 14:32:00,37.0,36.0,-100.00,East,85,0.0,0.0,96,0.00,,,-99.99,,2013-02-26 19:32:00,
2013-02-26 14:42:00,37.0,36.0,-100.00,East,85,0.0,0.0,95,0.00,,,-99.99,,2013-02-26 19:42:00,
2013-02-26 14:52:00,37.0,36.0,-100.00,East,85,0.0,0.0,95,0.00,,,-99.99,,2013-02-26 19:52:00,
2013-02-26 15:01:00,37.0,36.0,-100.00,East,90,0.0,0.0,94,0.00,,,-99.99,,2013-02-26 20:01:00,
2013-02-26 15:11:00,38.0,36.0,-100.00,East,95,0.0,0.0,94,0.00,,,-99.99,,2013-02-26 20:11:00,
2013-02-26 15:21:00,38.0,36.0,-100.00,East,95,0.0,0.0,94,0.00,,,-99.99,,2013-02-26 20:21:00,
2013-02-26 15:32:00,38.0,36.0,-100.00,East,90,0.0,0.0,94,0.00,,,-99.99,,2013-02-26 20:32:00,
2013-02-26 15:41:00,38.0,37.0,-100.00,East,100,0.0,0.0,93,0.00,,,-99.99,,2013-02-26 20:41:00,
2013-02-26 15:52:00,38.0,37.0,-100.00,East,95,0.0,0.0,93,0.00,,,-99.99,,2013-02-26 20:52:00,
2013-02-26 16:01:00,38.0,37.0,-100.00,East,95,0.0,0.0,94,0.55,,,-99.99,,2013-02-26 21:01:00,
2013-02-26 16:11:00,38.0,37.0,-100.00,East,100,0.0,0.0,94,0.00,,,-99.99,,2013-02-26 21:11:00,
2013-02-26 16:21:00,39.0,37.0,-100.00,East,95,0.0,0.0,95,0.00,,,-99.99,,2013-02-26 21:21:00,
2013-02-26 16:31:00,39.0,37.0,-100.00,East,100,0.0,0.0,95,0.55,,,-99.99,,2013-02-26 21:31:00,
2013-02-26 16:41:00,39.0,38.0,-100.00,East,95,0.0,0.0,95,0.00,,,-99.99,,2013-02-26 21:41:00,
2013-02-26 16:51:00,39.0,38.0,-100.00,East,90,0.0,0.0,94,2.83,,,-99.99,,2013-02-26 21:51:00,
2013-02-26 17:01:00,40.0,38.0,-100.00,East,95,0.0,0.0,94,1.10,,,-99.99,,2013-02-26 22:01:00,
2013-02-26 17:11:00,39.0,38.0,-100.00,East,85,0.0,0.0,95,2.24,,,-99.99,,2013-02-26 22:11:00,
2013-02-26 17:21:00,39.0,38.0,-100.00,East,85,0.0,0.0,95,2.24,,,-99.99,,2013-02-26 22:21:00,
2013-02-26 17:32:00,39.0,38.0,-100.00,East,85,0.0,0.0,95,2.24,,,-99.99,,2013-02-26 22:32:00,
2013-02-26 17:42:00,39.0,38.0,-100.00,East,85,0.0,0.0,95,2.24,,,-99.99,,2013-02-26 22:42:00,
2013-02-26 17:51:00,39.0,38.0,-100.00,East,85,0.0,0.0,95,2.24,,,-99.99,,2013-02-26 22:51:00,